sat.trackr.live / text

‹ back to catalog

ONEWEB-0284

NORAD 49002 · 2021-060AM

PAYLOAD ACTIVE UNKNOWN

§ Identity

Operator
Country
UK
Launch date
2021-07-01
Launch site
VOSTO
Launch vehicle
Mass (kg)
RCS (m²)

Purposes: comms

External: N2YO · Heavens-Above · Gunter

§ Orbital elements

Epoch: 2026-09-09T23:13:22.082016Z

Period
109.37 min
Inclination
87.9137°
Eccentricity
0.0001771
Mean motion
13.16594058 rev/d
Perigee alt
1,196.4 km
Apogee alt
1,199.1 km
Semi-major
7,575.9 km
B*
8.3945e-5
RAAN
211.9376°
Arg perigee
75.1312°
Mean anomaly
285.0015°
Rev number
25,075

§ Raw data

ONEWEB-02841 49002U 21060AM  26252.96761669  .00000045  00000+0  83945-4 0  99922 49002  87.9137 211.9376 0001771  75.1312 285.0015 13.16594058250758

JSON: /api/v1/satellites/49002 · /tle

For live sub-satellite position, see the globe view (requires WebGL).

§ Visibility from observer

Set your observer location to see the next 7 days of passes ≥ 10°. The values pass through the URL so the page stays shareable.

No JS? Fill the form by hand. The geolocation button needs JavaScript.